| time (UTC) | temp F | wind direction | speed knots | gust knots | rain 1hr in | rain 24hr in | rain mn in | humidity % | barometer mb |
| 20260507120052 | 51 | 63 | 0.9 | 2.6 | 0.00 | 0.00 | 0.00 | 81 | 1019.6 |
| 20260507114609 | 51 | 63 | 0.0 | 1.7 | 0.00 | 0.00 | 0.00 | 81 | 1019.7 |
| 20260507113053 | 51 | 55 | 0.0 | 1.7 | 0.00 | 0.00 | 0.00 | 80 | 1019.7 |
| 20260507111547 | 52 | 39 | 0.9 | 2.6 | 0.00 | 0.00 | 0.00 | 80 | 1019.8 |
| 20260507110049 | 52 | 349 | 0.0 | 3.5 | 0.00 | 0.00 | 0.00 | 80 | 1019.7 |
| 20260507104552 | 52 | 112 | 0.0 | 4.3 | 0.00 | 0.00 | 0.00 | 80 | 1019.9 |
| 20260507103044 | 52 | 59 | 0.0 | 1.7 | 0.00 | 0.00 | 0.00 | 79 | 1020.0 |
| 20260507101543 | 52 | 21 | 0.0 | 2.6 | 0.00 | 0.00 | 0.00 | 79 | 1020.0 |
| 20260507100044 | 52 | 355 | 0.9 | 3.5 | 0.00 | 0.00 | 0.00 | 80 | 1020.1 |
| 20260507094542 | 52 | 16 | 1.7 | 5.2 | 0.00 | 0.00 | 0.00 | 79 | 1020.1 |
| 20260507093041 | 52 | 88 | 0.0 | 1.7 | 0.00 | 0.00 | 0.00 | 79 | 1020.3 |
| 20260507091542 | 53 | 333 | 0.0 | 4.3 | 0.00 | 0.00 | 0.00 | 80 | 1020.4 |
| 20260507090037 | 53 | 308 | 0.9 | 5.2 | 0.00 | 0.00 | 0.00 | 80 | 1020.5 |
| 20260507084535 | 53 | 24 | 0.0 | 3.5 | 0.00 | 0.00 | 0.00 | 80 | 1020.4 |
| 20260507083035 | 53 | 32 | 0.9 | 4.3 | 0.00 | 0.00 | 0.00 | 80 | 1020.5 |
| 20260507081533 | 53 | 10 | 0.9 | 4.3 | 0.00 | 0.00 | 0.00 | 81 | 1020.4 |
| 20260507080036 | 53 | 5 | 0.9 | 3.5 | 0.00 | 0.00 | 0.00 | 80 | 1020.5 |
| 20260507074532 | 53 | 317 | 0.9 | 4.3 | 0.00 | 0.00 | 0.00 | 81 | 1020.5 |
| 20260507073030 | 53 | 340 | 0.0 | 3.5 | 0.00 | 0.00 | 0.00 | 81 | 1020.5 |
| 20260507071528 | 53 | 30 | 0.0 | 3.5 | 0.00 | 0.00 | 0.00 | 81 | 1020.4 |
| 20260507070028 | 53 | 44 | 0.9 | 4.3 | 0.00 | 0.00 | 0.00 | 82 | 1020.3 |
| 20260507064527 | 53 | 30 | 0.9 | 2.6 | 0.00 | 0.00 | 0.00 | 82 | 1020.4 |
| 20260507063039 | 54 | 46 | 0.9 | 7.0 | 0.00 | 0.00 | 0.00 | 82 | 1020.3 |
| 20260507061527 | 54 | 57 | 1.7 | 5.2 | 0.00 | 0.00 | 0.00 | 82 | 1020.4 |
| 20260507060039 | 54 | 46 | 1.7 | 5.2 | 0.00 | 0.00 | 0.00 | 82 | 1020.4 |
| 20260507054522 | 54 | 269 | 1.7 | 7.0 | 0.00 | 0.00 | 0.00 | 82 | 1020.3 |
| 20260507053026 | 54 | 82 | 2.6 | 8.7 | 0.00 | 0.00 | 0.00 | 81 | 1020.4 |
| 20260507051519 | 55 | 40 | 1.7 | 8.7 | 0.00 | 0.00 | 0.00 | 81 | 1020.3 |
| 20260507050017 | 55 | 49 | 1.7 | 6.1 | 0.00 | 0.00 | 0.00 | 81 | 1020.4 |
| 20260507044518 | 55 | 125 | 2.6 | 8.7 | 0.00 | 0.00 | 0.00 | 80 | 1020.4 |
| 20260507043016 | 56 | 46 | 1.7 | 6.1 | 0.00 | 0.00 | 0.00 | 80 | 1020.2 |
| 20260507041515 | 56 | 56 | 0.9 | 7.8 | 0.00 | 0.00 | 0.00 | 80 | 1020.1 |
| 20260507040017 | 56 | 5 | 2.6 | 9.6 | 0.00 | 0.00 | 0.00 | 80 | 1020.0 |
| 20260507034527 | 57 | 51 | 2.6 | 8.7 | 0.00 | 0.00 | 0.00 | 80 | 1019.8 |
| 20260507033013 | 57 | 65 | 1.7 | 7.8 | 0.00 | 0.00 | 0.00 | 81 | 1019.5 |
| 20260507031513 | 57 | 17 | 1.7 | 8.7 | 0.00 | 0.00 | 0.00 | 80 | 1019.3 |
| 20260507030012 | 58 | 30 | 0.9 | 5.2 | 0.00 | 0.00 | 0.00 | 79 | 1019.2 |
| 20260507024511 | 59 | 62 | 2.6 | 7.8 | 0.00 | 0.00 | 0.00 | 78 | 1019.0 |
| 20260507023011 | 59 | 61 | 2.6 | 5.2 | 0.00 | 0.00 | 0.00 | 78 | 1018.9 |
| 20260507021510 | 60 | 80 | 2.6 | 10.4 | 0.00 | 0.00 | 0.00 | 76 | 1018.9 |
| 20260507020024 | 61 | 341 | 2.6 | 7.8 | 0.00 | 0.00 | 0.00 | 74 | 1019.1 |
| 20260507014509 | 61 | 55 | 2.6 | 10.4 | 0.00 | 0.00 | 0.00 | 75 | 1019.1 |
| 20260507013018 | 62 | 75 | 3.5 | 10.4 | 0.00 | 0.00 | 0.00 | 73 | 1019.1 |
| 20260507011509 | 64 | 46 | 3.5 | 9.6 | 0.00 | 0.00 | 0.00 | 72 | 1019.0 |
| 20260507010008 | 65 | 40 | 1.7 | 9.6 | 0.00 | 0.00 | 0.00 | 72 | 1019.0 |
| 20260507004506 | 66 | 312 | 0.9 | 7.8 | 0.00 | 0.00 | 0.00 | 72 | 1018.9 |
| 20260507003007 | 66 | 94 | 1.7 | 6.1 | 0.00 | 0.00 | 0.00 | 71 | 1018.9 |
| 20260507001506 | 67 | 92 | 0.0 | 2.6 | 0.00 | 0.00 | 0.00 | 71 | 1018.9 |
| 20260507000005 | 67 | 141 | 1.7 | 4.3 | 0.00 | 0.00 | 0.00 | 69 | 1018.8 |
| 20260506234504 | 67 | 178 | 1.7 | 3.5 | 0.00 | 0.00 | 0.00 | 70 | 1018.8 |
| 20260506233006 | 68 | 133 | 1.7 | 5.2 | 0.00 | 0.00 | 0.00 | 68 | 1018.8 |
| 20260506231503 | 68 | 120 | 0.0 | 2.6 | 0.00 | 0.00 | 0.00 | 68 | 1018.9 |
| 20260506230002 | 68 | 111 | 1.7 | 5.2 | 0.00 | 0.00 | 0.00 | 68 | 1019.1 |
| 20260506224505 | 67 | 217 | 0.9 | 3.5 | 0.00 | 0.00 | 0.00 | 69 | 1019.2 |
| 20260506223001 | 68 | 141 | 0.9 | 6.1 | 0.00 | 0.00 | 0.00 | 66 | 1019.4 |
| 20260506221602 | 68 | 221 | 0.9 | 6.1 | 0.00 | 0.00 | 0.00 | 68 | 1019.5 |
| 20260506220104 | 70 | 323 | 0.9 | 5.2 | 0.00 | 0.00 | 0.00 | 66 | 1019.5 |
| 20260506214601 | 69 | 129 | 3.5 | 8.7 | 0.00 | 0.00 | 0.00 | 69 | 1019.4 |
| 20260506213053 | 67 | 140 | 4.3 | 7.0 | 0.00 | 0.00 | 0.00 | 71 | 1019.6 |
| 20260506211604 | 67 | 304 | 2.6 | 6.1 | 0.00 | 0.00 | 0.00 | 69 | 1019.9 |
| 20260506210052 | 68 | 238 | 1.7 | 7.0 | 0.00 | 0.00 | 0.00 | 69 | 1019.9 |
| 20260506204548 | 66 | 189 | 4.3 | 8.7 | 0.00 | 0.00 | 0.00 | 72 | 1019.8 |
| 20260506203043 | 64 | 131 | 6.1 | 8.7 | 0.00 | 0.00 | 0.00 | 76 | 1019.8 |
| 20260506201541 | 63 | 138 | 2.6 | 8.7 | 0.00 | 0.00 | 0.00 | 80 | 1019.9 |
| 20260506200043 | 62 | 260 | 0.9 | 6.1 | 0.00 | 0.00 | 0.00 | 79 | 1020.1 |
| 20260506194544 | 62 | 198 | 0.9 | 7.0 | 0.00 | 0.00 | 0.00 | 78 | 1020.3 |
| 20260506193035 | 62 | 173 | 1.7 | 7.8 | 0.00 | 0.00 | 0.00 | 79 | 1020.3 |
| 20260506191532 | 61 | 214 | 1.7 | 5.2 | 0.00 | 0.00 | 0.00 | 79 | 1020.1 |
| 20260506190030 | 61 | 281 | 0.9 | 6.1 | 0.00 | 0.00 | 0.00 | 79 | 1020.2 |
| 20260506184529 | 61 | 307 | 1.7 | 7.0 | 0.00 | 0.00 | 0.00 | 81 | 1020.0 |
| 20260506183028 | 60 | 136 | 1.7 | 7.0 | 0.00 | 0.00 | 0.00 | 82 | 1020.0 |
| 20260506181524 | 59 | 292 | 0.0 | 2.6 | 0.00 | 0.00 | 0.00 | 83 | 1020.1 |
| 20260506180021 | 58 | 226 | 1.7 | 4.3 | 0.00 | 0.00 | 0.00 | 83 | 1020.1 |
| 20260506174519 | 58 | 299 | 0.9 | 3.5 | 0.00 | 0.00 | 0.00 | 84 | 1020.1 |
| 20260506173023 | 57 | 165 | 0.9 | 3.5 | 0.00 | 0.00 | 0.00 | 86 | 1019.8 |
| 20260506171518 | 57 | 211 | 1.7 | 3.5 | 0.00 | 0.00 | 0.00 | 86 | 1019.8 |
| 20260506170016 | 57 | 340 | 0.9 | 4.3 | 0.00 | 0.00 | 0.00 | 86 | 1020.0 |
| 20260506164517 | 57 | 198 | 0.0 | 1.7 | 0.00 | 0.00 | 0.00 | 87 | 1019.9 |
| 20260506163019 | 56 | 161 | 1.7 | 3.5 | 0.00 | 0.00 | 0.00 | 88 | 1019.8 |
| 20260506161516 | 56 | 180 | 0.9 | 2.6 | 0.00 | 0.00 | 0.00 | 89 | 1019.6 |
| 20260506160018 | 55 | 176 | 0.9 | 5.2 | 0.00 | 0.00 | 0.00 | 89 | 1019.5 |
| 20260506154516 | 55 | 105 | 1.7 | 3.5 | 0.00 | 0.00 | 0.00 | 88 | 1019.0 |
| 20260506153013 | 55 | 24 | 0.0 | 1.7 | 0.00 | 0.00 | 0.00 | 88 | 1019.8 |
| 20260506151513 | 55 | 314 | 0.0 | 2.6 | 0.00 | 0.00 | 0.00 | 88 | 1019.9 |
| 20260506150011 | 55 | 326 | 0.0 | 1.7 | 0.00 | 0.00 | 0.00 | 88 | 1019.8 |
| 20260506144510 | 55 | 355 | 0.0 | 1.7 | 0.00 | 0.00 | 0.00 | 89 | 1019.7 |
| 20260506143007 | 55 | 311 | 0.0 | 1.7 | 0.00 | 0.00 | 0.00 | 89 | 1019.2 |
| 20260506141505 | 55 | 178 | 0.9 | 2.6 | 0.00 | 0.00 | 0.00 | 89 | 1018.9 |
| 20260506140006 | 55 | 192 | 0.0 | 2.6 | 0.00 | 0.00 | 0.00 | 89 | 1019.0 |
| 20260506134504 | 55 | 147 | 0.0 | 2.6 | 0.00 | 0.00 | 0.00 | 88 | 1018.8 |
| 20260506133003 | 54 | 162 | 0.0 | 4.3 | 0.00 | 0.00 | 0.00 | 88 | 1018.7 |
| 20260506131502 | 54 | 121 | 0.0 | 2.6 | 0.00 | 0.00 | 0.00 | 88 | 1018.6 |
| 20260506130100 | 54 | 101 | 0.9 | 2.6 | 0.00 | 0.00 | 0.00 | 88 | 1018.6 |
| 20260506124558 | 55 | 129 | 0.9 | 1.7 | 0.00 | 0.00 | 0.00 | 88 | 1018.5 |
| 20260506123057 | 55 | 80 | 0.0 | 2.6 | 0.00 | 0.00 | 0.00 | 87 | 1018.4 |
| 20260506121605 | 55 | 65 | 0.9 | 3.5 | 0.00 | 0.00 | 0.00 | 87 | 1018.5 |